This is the latest recevied weather packets stored in our database for station/object AE4BA-13. If no packets are shown the sender has not sent any weather packets the latest 10 day(s).
| Time | Temp. | Humidity | Pressure | Rain* | Wind** | Luminosity | Snow |
|---|---|---|---|---|---|---|---|
| 1788653670 | 26.67° C | 66% | 1005.2 hPa | 0 mm | - | 0 W/m² | - |
| 1788653070 | 26.67° C | 66% | 1004.9 hPa | 0 mm | - | 0 W/m² | - |
| 1788652470 | 27.22° C | 65% | 1004.9 hPa | 0 mm | - | 1 W/m² | - |
| 1788651870 | 27.78° C | 63% | 1004.9 hPa | 0 mm | - | 3 W/m² | - |
| 1788651270 | 28.33° C | 62% | 1005 hPa | 0 mm | - | 6 W/m² | - |
| 1788650670 | 28.89° C | 59% | 1005 hPa | 0 mm | - | 13 W/m² | - |
| 1788650070 | 30° C | 56% | 1005 hPa | 0 mm | - | 21 W/m² | - |
| 1788649470 | 30° C | 54% | 1005 hPa | 0 mm | - | 47 W/m² | - |
| 1788648870 | 30.56° C | 55% | 1005 hPa | 0 mm | - | 65 W/m² | - |
| 1788648270 | 31.67° C | 51% | 1005.2 hPa | 0 mm | - | 47 W/m² | - |
| 1788647670 | 31.67° C | 52% | 1005.1 hPa | 0 mm | - | 114 W/m² | - |
| 1788647070 | 31.67° C | 50% | 1005 hPa | 0 mm | - | 140 W/m² | - |
| 1788646828 | 31.67° C | 50% | 1005 hPa | 0 mm | - | 152 W/m² | - |
| 1788646604 | 31.67° C | 50% | 1005 hPa | 0 mm | - | 166 W/m² | - |
| 1788645710 | 31.67° C | 50% | 1004.9 hPa | 0 mm | - | 210 W/m² | - |
| 1788645189 | 31.11° C | 51% | 1004.8 hPa | 0 mm | - | 241 W/m² | - |
| 1788644614 | 30.56° C | 52% | 1004.8 hPa | 0 mm | - | 299 W/m² | - |
| 1788644014 | 30° C | 55% | 1004.7 hPa | 0 mm | - | 364 W/m² | - |
| 1788643414 | 30° C | 56% | 1004.6 hPa | 0 mm | - | 174 W/m² | - |
| 1788642814 | 30° C | 55% | 1004.5 hPa | 0 mm | - | 257 W/m² | - |
| 1788642214 | 30° C | 54% | 1004.6 hPa | 0 mm | - | 217 W/m² | - |
| 1788641614 | 30.56° C | 54% | 1004.6 hPa | 0 mm | - | 292 W/m² | - |
| 1788641014 | 31.11° C | 52% | 1004.7 hPa | 0 mm | - | 181 W/m² | - |
| 1788640414 | 31.67° C | 50% | 1004.7 hPa | 0 mm | - | 313 W/m² | - |
| 1788639814 | 32.22° C | 49% | 1004.7 hPa | 0 mm | - | 444 W/m² | - |
* Rain latest hour (hover to see other rain measurements)
** Current wind speed in m/s (hover to see current wind gust speed)